Champaign, IL

6:43 PM CST on February 19, 2018 (GMT -0600)
Univ Of Illinois-Willard

Weather History for KCMI - March, 2013

Change the Weather History Date:

Tuesday, March 5, 2013

  Actual Average Record
Temperature  
Mean Temperature 32 °F 36 °F  
Max Temperature 36 °F 45 °F 67 °F (2009)
Min Temperature 28 °F 27 °F -7 °F (2015)
Degree Days  
Heating Degree Days 33 29  
Month to date heating degree days 184 148  
Since 1 July heating degree days 4345 4650  
Cooling Degree Days 0 0  
Month to date cooling degree days 0 0  
Year to date cooling degree days 0 0  
Moisture  
Dew Point 30 °F    
Average Humidity 88    
Maximum Humidity 100    
Minimum Humidity 75    
Precipitation  
Precipitation 0.23 in 0.07 in 0.36 in (1999)
Month to date precipitation 0.23 0.34  
Year to date precipitation 5.29 4.41  
Sea Level Pressure  
Sea Level Pressure 29.82 in    
Wind  
Wind Speed 16 mph (NNW)    
Max Wind Speed 33 mph    
Max Gust Speed 43 mph    
Visibility 3 miles    
Events Fog , Rain , Snow    
T = Trace of Precipitation, MM = Missing Value Source: NWS Daily Summary

Daily Weather History Graph

Daily Weather History Graph

Search for Another Location

Airport or City:

Trip Planner

Search our weather history database for the weather conditions in past years. The results will help you decide how hot, cold, wet, or windy it might be!

Date:

Astronomy

Mar. 05, 2013 Rise Set
Actual Time 6:20 AM CST 5:49 PM CST
Civil Twilight 5:52 AM CST 6:16 PM CST
Nautical Twilight 5:21 AM CST 6:48 PM CST
Astronomical Twilight 4:50 AM CST 7:19 PM CST
Moon 1:31 AM CST (3/5) 11:28 AM CST (3/5)
Length of Visible Light 12h 23m
Length of Day
11h 29m
Last Quarter, 40% of the Moon is Illuminated
Mar 5
Last Quarter
Mar 11
New
Mar 19
First Quarter
Mar 27
Full
Apr 2
Last Quarter

Hourly Weather History & Observations

Time (CST) Temp. Windchill Dew Point Humidity Pressure Visibility Wind Dir Wind Speed Gust Speed Precip Events Conditions
1:53 AM 35.1 °F 25.5 °F 28.9 °F 78% 29.87 in 10.0 mi ENE 15.0 mph - N/A   Overcast
2:53 AM 35.1 °F 26.9 °F 28.9 °F 78% 29.85 in 10.0 mi East 11.5 mph - N/A   Overcast
3:53 AM 35.1 °F 26.9 °F 30.0 °F 82% 29.84 in 10.0 mi East 11.5 mph - N/A   Overcast
4:53 AM 35.1 °F 27.4 °F 30.0 °F 82% 29.84 in 9.0 mi East 10.4 mph - N/A   Overcast
5:53 AM 35.1 °F 27.4 °F 30.0 °F 82% 29.82 in 9.0 mi East 10.4 mph - N/A   Overcast
7:43 AM 35.6 °F 32.8 °F 30.2 °F 81% 29.81 in 7.0 mi East 3.5 mph - N/A   Overcast
7:53 AM 36.0 °F 33.3 °F 30.9 °F 82% 29.83 in 6.0 mi East 3.5 mph - N/A   Haze
8:41 AM 35.6 °F 29.2 °F 33.8 °F 93% 29.79 in 3.0 mi ENE 8.1 mph - 0.02 in Rain Light Rain
8:53 AM 36.0 °F 31.1 °F 33.1 °F 89% 29.80 in 3.0 mi ENE 5.8 mph - 0.03 in Rain Light Rain
9:37 AM 35.6 °F 32.8 °F 33.8 °F 93% 29.79 in 5.0 mi NNE 3.5 mph - 0.01 in   Overcast
9:53 AM 36.0 °F 33.3 °F 33.1 °F 89% 29.81 in 5.0 mi NNW 3.5 mph - 0.01 in   Overcast
10:34 AM 35.6 °F 32.8 °F 33.8 °F 93% 29.78 in 2.5 mi North 3.5 mph - 0.00 in Snow Light Snow
10:53 AM 35.1 °F 30.1 °F 33.1 °F 92% 29.79 in 2.0 mi North 5.8 mph - 0.00 in Snow Light Snow
11:01 AM 35.6 °F 30.7 °F 33.8 °F 93% 29.77 in 1.5 mi North 5.8 mph - 0.01 in Snow Light Snow
11:26 AM 33.8 °F 29.6 °F 32.0 °F 93% 29.77 in 1.0 mi NW 4.6 mph - 0.02 in Snow Light Snow
11:30 AM 33.8 °F 28.6 °F 32.0 °F 93% 29.77 in 0.8 mi NW 5.8 mph - 0.02 in Snow Light Snow
11:45 AM 33.8 °F 27.7 °F 32.0 °F 93% 29.77 in 0.5 mi WNW 6.9 mph - 0.03 in Fog , Snow Snow
11:53 AM 33.1 °F 26.9 °F 32.0 °F 96% 29.80 in 0.5 mi WNW 6.9 mph - 0.03 in Fog , Snow Light Snow
12:13 PM 33.8 °F 27.7 °F 32.0 °F 93% 29.77 in 0.2 mi WNW 6.9 mph - 0.02 in Fog , Snow Snow
12:28 PM 33.8 °F 25.8 °F 32.0 °F 93% 29.76 in 0.2 mi WNW 10.4 mph - 0.04 in Fog , Snow Snow
12:53 PM 33.1 °F 24.4 °F 32.0 °F 96% 29.78 in 0.2 mi WNW 11.5 mph - 0.06 in Fog , Snow Snow
1:53 PM 33.1 °F 21.2 °F 32.0 °F 96% 29.78 in 0.2 mi WNW 20.7 mph 27.6 mph 0.03 in Fog , Snow Snow
2:53 PM 30.9 °F 15.9 °F 30.0 °F 96% 29.80 in 0.2 mi WNW 31.1 mph 36.8 mph 0.02 in Fog , Snow Snow
3:49 PM 30.2 °F 15.4 °F 28.4 °F 93% 29.79 in 0.2 mi WNW 28.8 mph 36.8 mph 0.02 in Fog , Snow Snow
3:50 PM 30.0 °F 15.7 °F 28.9 °F 96% 29.81 in 0.2 mi WNW 26.5 mph 36.8 mph 0.02 in Fog , Snow Snow
3:52 PM 30.2 °F 15.9 °F 28.4 °F 93% 29.79 in 0.5 mi WNW 26.5 mph 36.8 mph 0.00 in Fog , Snow Snow
4:04 PM 30.2 °F 15.2 °F 28.4 °F 93% 29.80 in 0.2 mi WNW 29.9 mph 38.0 mph 0.00 in Fog , Snow Snow
4:53 PM 30.0 °F 14.7 °F 28.0 °F 92% 29.83 in 0.2 mi WNW 31.1 mph 36.8 mph 0.01 in Fog , Snow Snow
5:21 PM 30.2 °F 15.7 °F 28.4 °F 93% 29.82 in 0.5 mi WNW 27.6 mph - 0.01 in Fog , Snow Snow
5:42 PM 30.2 °F 16.2 °F 28.4 °F 93% 29.82 in 0.5 mi WNW 25.3 mph 32.2 mph 0.01 in Fog , Snow Light Snow
5:53 PM 28.9 °F 15.1 °F 27.0 °F 92% 29.85 in 0.5 mi WNW 23.0 mph 34.5 mph 0.01 in Fog , Snow Snow
6:53 PM 28.9 °F 14.5 °F 27.0 °F 92% 29.86 in 0.5 mi WNW 25.3 mph 34.5 mph 0.00 in Snow Light Snow
7:53 PM 28.9 °F 14.5 °F 27.0 °F 92% 29.86 in 1.0 mi WNW 25.3 mph 33.4 mph 0.00 in Snow Light Snow
8:53 PM 30.0 °F 17.2 °F 28.9 °F 96% 29.88 in 1.0 mi WNW 20.7 mph - 0.01 in Snow Light Snow
9:53 PM 30.0 °F 16.6 °F 28.0 °F 92% 29.91 in 1.5 mi NW 23.0 mph 29.9 mph 0.00 in Snow Light Snow
10:53 PM 28.9 °F 14.5 °F 27.0 °F 92% 29.94 in 1.5 mi NNW 25.3 mph - 0.00 in Snow Light Snow
11:53 PM 28.0 °F 13.0 °F 26.1 °F 92% 29.97 in 1.2 mi NNW 26.5 mph - 0.00 in Snow Light Snow